Starlink 11500

operational
NORAD ID: 62472 Int'l Des: 2024-254 Owner: SPXS Country: US Constellation: starlink
LEOCIRCULAR

关于 Starlink 11500

正在加载描述...

实时位置

正在加载3D地球...

即将过境

高度历史

Altitude vs Time

uPlot chart will show altitude changes over time

两行轨道根数

1 62472U 24254L 25346.25815277 .00187266 00000-0 14334-2 0 9992
2 62472 43.0003 29.7089 0001474 276.3915 83.6784 15.70787414 55120
Epoch: Dec 12, 2025 • Age: 20 hours

当前状态

高度 363.7 km
速度 7.69 km/s
星下点 -31.93°S, 126.14°W
发射日期 Dec 31, 2024
运行时间 0.9 years
类型 internet

技术详情

分类 Payload
质量 960.00 kg
干质量 910.00 kg
总质量 960.00 kg
长度 0.30 m
直径 4.10 m
跨度 29.00 m
形状 Box + pan
制造商 SPXS
平台类型 Starlink V2MD
阶段状态 In Orbit
所有者/国家 SPXS/US

大型星座

Loading constellations...